KB3YCK-2 Weather Reports


time (UTC)temp
F
wind
direction
speed
knots
gust
knots
rain 1hr
in
rain 24hr
in
rain mn
in
humidity
%
barometer
mb
20260506231522 66 9 0.9 9.6 0.00 0.13 0.13 87 1008.6
20260506231001 66 257 1.7 9.6 0.00 0.13 0.13 87 1008.6
20260506230502 66 217 2.6 7.0 0.00 0.13 0.13 87 1008.5
20260506230002 66 93 1.7 7.0 0.00 0.13 0.13 87 1008.4
20260506225502 66 265 1.7 7.8 0.00 0.13 0.13 87 1008.3
20260506225002 66 93 0.9 7.0 0.00 0.13 0.13 87 1008.5
20260506224511 67 298 1.7 8.7 0.00 0.13 0.13 87 1008.5
20260506224004 67 265 2.6 13.9 0.00 0.13 0.13 86 1008.5
20260506223501 67 153 0.9 13.9 0.00 0.13 0.13 86 1008.5
20260506223006 67 269 1.7 10.4 0.00 0.13 0.13 86 1008.6
20260506222502 68 325 0.9 10.4 0.00 0.13 0.13 85 1008.6
20260506222003 68 239 2.6 10.4 0.00 0.13 0.13 85 1008.6
20260506221509 68 178 3.5 10.4 0.00 0.13 0.13 85 1008.6
20260506221002 69 217 0.9 9.6 0.00 0.13 0.13 85 1008.5
20260506220502 69 44 2.6 9.6 0.00 0.13 0.13 85 1008.3
20260506220003 69 68 3.5 9.6 0.00 0.13 0.13 85 1008.2
20260506215507 68 56 1.7 10.4 0.00 0.13 0.13 86 1008.2
20260506215006 68 146 3.5 11.3 0.00 0.13 0.13 85 1008.3
20260506214505 68 200 3.5 11.3 0.00 0.13 0.13 85 1008.2
20260506214001 68 323 1.7 9.6 0.00 0.13 0.13 86 1008.2
20260506213506 68 275 2.6 8.7 0.00 0.13 0.13 86 1008.1
20260506213010 68 282 1.7 8.7 0.00 0.13 0.13 86 1008.2
20260506212503 68 239 0.9 8.7 0.00 0.13 0.13 86 1008.1
20260506212003 68 338 0.9 8.7 0.00 0.13 0.13 86 1008.0
20260506211510 68 250 0.9 7.0 0.00 0.13 0.13 85 1008.1
20260506211003 68 284 1.7 8.7 0.00 0.13 0.13 85 1008.0
20260506210503 69 115 1.7 8.7 0.00 0.13 0.13 85 1008.3
20260506210010 69 212 1.7 12.2 0.00 0.13 0.13 84 1008.1
20260506205508 69 9 0.9 9.6 0.00 0.13 0.13 84 1008.0
20260506205004 69 239 0.9 12.2 0.00 0.13 0.13 84 1008.0
20260506204504 69 221 3.5 12.2 0.00 0.13 0.13 84 1007.9
20260506204006 69 265 3.5 11.3 0.00 0.13 0.13 85 1007.8
20260506203508 68 288 2.6 8.7 0.00 0.13 0.13 85 1008.0
20260506203002 68 305 2.6 8.7 0.00 0.13 0.13 85 1007.9
20260506202503 68 9 1.7 14.8 0.00 0.13 0.13 85 1008.0
20260506202010 68 309 2.6 14.8 0.00 0.13 0.13 85 1007.9
20260506201502 68 239 4.3 13.0 0.00 0.13 0.13 85 1007.8
20260506201004 67 298 1.7 10.4 0.00 0.13 0.13 85 1007.9
20260506200503 67 93 2.6 10.4 0.00 0.13 0.13 84 1007.9
20260506200020 67 164 3.5 11.3 0.00 0.13 0.13 84 1007.9
20260506195503 67 282 2.6 11.3 0.00 0.13 0.13 84 1007.9
20260506195006 66 286 1.7 13.0 0.00 0.13 0.13 85 1007.9
20260506194512 66 296 3.5 13.0 0.00 0.13 0.13 84 1008.1
20260506194009 65 298 2.6 12.2 0.00 0.13 0.13 84 1008.1
20260506193504 65 198 3.5 11.3 0.00 0.13 0.13 85 1008.2
20260506193016 65 193 3.5 8.7 0.00 0.13 0.13 85 1008.2
20260506192507 64 137 1.7 9.6 0.00 0.13 0.13 85 1008.2
20260506192003 64 129 0.9 9.6 0.00 0.13 0.13 86 1008.3
20260506191503 63 330 1.7 8.7 0.00 0.13 0.13 86 1008.3
20260506191004 63 9 1.7 10.4 0.00 0.13 0.13 86 1008.5
20260506190510 62 178 0.9 10.4 0.00 0.13 0.13 86 1008.6
20260506190005 62 108 0.9 7.8 0.00 0.13 0.13 86 1008.5
20260506185504 62 243 1.7 8.7 0.00 0.13 0.13 86 1008.6
20260506185008 62 229 2.6 8.7 0.00 0.13 0.13 86 1008.7
20260506184518 62 309 0.9 8.7 0.00 0.13 0.13 86 1008.7
20260506184004 62 110 2.6 9.6 0.00 0.13 0.13 86 1008.7
20260506183508 62 162 1.7 9.6 0.00 0.13 0.13 86 1008.7
20260506183022 62 129 2.6 9.6 0.00 0.13 0.13 86 1008.7
20260506182505 61 193 2.6 9.6 0.00 0.13 0.13 86 1008.7
20260506182011 61 239 1.7 10.4 0.00 0.13 0.13 86 1008.7
20260506181516 61 41 3.5 10.4 0.00 0.13 0.13 87 1008.8
20260506181002 61 232 2.6 10.4 0.00 0.13 0.13 87 1008.9
20260506180503 61 250 2.6 10.4 0.00 0.13 0.13 87 1008.9
20260506180009 61 272 0.9 10.4 0.00 0.13 0.13 87 1009.0
20260506175503 61 314 2.6 10.4 0.00 0.13 0.13 87 1008.9
20260506175006 61 51 2.6 10.4 0.00 0.13 0.13 87 1008.9
20260506174504 61 169 2.6 10.4 0.00 0.13 0.13 87 1008.9
20260506174006 61 196 1.7 10.4 0.00 0.13 0.13 87 1008.9
20260506173503 61 265 1.7 12.2 0.00 0.13 0.13 87 1008.9
20260506173004 61 93 2.6 12.2 0.00 0.13 0.13 88 1009.0
20260506172504 61 250 1.7 9.6 0.00 0.13 0.13 88 1009.0
20260506172008 61 316 2.6 8.7 0.00 0.13 0.13 88 1009.1
20260506171503 61 51 1.7 16.5 0.00 0.13 0.13 88 1009.1
20260506171003 61 239 5.2 16.5 0.00 0.13 0.13 88 1009.0
20260506170505 61 239 2.6 12.2 0.00 0.13 0.13 88 1009.1
20260506170003 61 215 1.7 13.0 0.01 0.13 0.13 88 1009.1
20260506165506 61 200 2.6 13.0 0.01 0.13 0.13 88 1009.2
20260506165003 61 219 2.6 8.7 0.02 0.13 0.13 88 1009.2
20260506164514 61 236 2.6 8.7 0.03 0.13 0.13 88 1009.2
20260506164002 61 265 2.6 12.2 0.03 0.13 0.13 89 1009.2
20260506163503 61 250 2.6 12.2 0.04 0.13 0.13 89 1009.2
20260506163009 61 51 1.7 8.7 0.04 0.13 0.13 89 1009.3
20260506162504 61 250 3.5 11.3 0.05 0.13 0.13 89 1009.4
20260506162003 61 239 1.7 11.3 0.05 0.13 0.13 89 1009.5
20260506161508 61 230 3.5 11.3 0.05 0.13 0.13 89 1009.4
20260506161004 61 242 2.6 8.7 0.05 0.13 0.13 89 1009.5
20260506160513 61 319 1.7 8.7 0.05 0.13 0.13 89 1009.3
20260506160006 61 265 1.7 5.2 0.05 0.12 0.12 89 1009.4
20260506155506 61 61 0.0 7.0 0.06 0.12 0.12 89 1009.6
20260506155007 61 325 0.9 7.8 0.06 0.11 0.11 89 1009.8
20260506154503 61 247 0.9 7.8 0.05 0.10 0.10 90 1010.0
20260506154004 61 309 1.7 7.8 0.06 0.10 0.10 90 1010.0
20260506153512 61 205 1.7 11.3 0.06 0.09 0.09 90 1010.2
20260506153016 61 238 2.6 12.2 0.07 0.09 0.09 90 1010.3
20260506152503 61 162 0.9 12.2 0.06 0.08 0.08 90 1010.4
20260506152007 61 153 1.7 6.1 0.06 0.08 0.08 90 1010.4
20260506151511 61 221 1.7 5.2 0.07 0.08 0.08 90 1010.3
20260506151005 61 153 0.9 5.2 0.07 0.08 0.08 90 1010.2
20260506150504 61 292 0.9 7.8 0.08 0.08 0.08 90 1010.1
20260506150006 61 103 0.9 13.0 0.07 0.07 0.07 90 1010.0
20260506145508 61 259 2.6 13.0 0.06 0.06 0.06 90 1009.9
20260506145003 61 279 0.9 10.4 0.05 0.05 0.05 90 1010.0
20260506144512 61 9 1.7 10.4 0.05 0.05 0.05 90 1010.1
20260506144007 61 113 1.7 8.7 0.04 0.04 0.04 89 1010.0
20260506143511 62 336 0.9 8.7 0.03 0.03 0.03 89 1010.1
20260506143005 62 246 2.6 8.7 0.02 0.02 0.02 89 1010.3
20260506142503 62 239 1.7 7.8 0.02 0.02 0.02 89 1010.4
20260506142005 62 257 2.6 9.6 0.02 0.02 0.02 89 1010.3
20260506141523 62 51 0.9 9.6 0.01 0.01 0.01 89 1010.2
20260506141006 63 178 2.6 9.6 0.01 0.01 0.01 88 1010.1
20260506140507 63 215 0.9 8.7 0.00 0.00 0.00 87 1010.1
20260506140016 63 149 2.6 10.4 0.00 0.00 0.00 86 1010.3
20260506135503 64 61 3.5 10.4 0.00 0.00 0.00 86 1010.3
20260506135005 64 275 2.6 12.2 0.00 0.00 0.00 85 1010.2
20260506134512 64 319 1.7 12.2 0.00 0.00 0.00 84 1010.2
20260506134005 64 245 2.6 12.2 0.00 0.00 0.00 84 1010.1
20260506133503 64 93 3.5 13.9 0.00 0.00 0.00 85 1010.1
20260506133007 64 111 1.7 13.9 0.00 0.00 0.00 86 1010.0
20260506132508 64 123 1.7 12.2 0.00 0.00 0.00 86 1010.1
20260506132012 64 178 1.7 13.9 0.00 0.00 0.00 86 1010.1
20260506131507 64 117 4.3 17.4 0.00 0.00 0.00 85 1010.1
20260506131004 64 131 2.6 17.4 0.00 0.00 0.00 85 1010.1
20260506130509 64 22 2.6 11.3 0.00 0.00 0.00 85 1010.1
20260506130024 64 309 3.5 11.3 0.00 0.00 0.00 84 1010.1
20260506125504 64 22 1.7 10.4 0.00 0.00 0.00 84 1010.2
20260506125006 64 93 1.7 13.0 0.00 0.00 0.00 84 1010.3
20260506124520 64 178 4.3 13.0 0.00 0.00 0.00 84 1010.3
20260506124003 64 249 2.6 12.2 0.00 0.00 0.00 84 1010.3
20260506123510 64 223 3.5 10.4 0.00 0.00 0.00 84 1010.3
20260506123016 64 321 2.6 11.3 0.00 0.00 0.00 84 1010.4
20260506122510 64 221 2.6 15.6 0.00 0.00 0.00 84 1010.3
20260506122003 64 275 1.7 15.6 0.00 0.00 0.00 84 1010.4
20260506121527 64 254 3.5 12.2 0.00 0.00 0.00 84 1010.3
20260506121007 64 242 1.7 11.3 0.00 0.00 0.00 84 1010.3
20260506120513 64 265 2.6 15.6 0.00 0.00 0.00 84 1010.0
20260506120022 64 175 7.8 15.6 0.00 0.00 0.00 84 1010.0
20260506115509 64 212 2.6 10.4 0.00 0.00 0.00 84 1010.0
20260506115011 64 22 1.7 12.2 0.00 0.00 0.00 84 1010.0
20260506114505 64 280 3.5 12.2 0.00 0.00 0.00 84 1009.9
20260506114004 64 93 2.6 12.2 0.00 0.00 0.00 84 1009.8
20260506113510 64 257 2.6 12.2 0.00 0.00 0.00 84 1009.9
20260506113004 64 9 1.7 13.0 0.00 0.00 0.00 84 1009.8
20260506112508 64 255 4.3 16.5 0.00 0.00 0.00 84 1009.7
20260506112003 64 153 2.6 16.5 0.00 0.00 0.00 84 1009.7
20260506111504 64 254 3.5 13.9 0.00 0.00 0.00 84 1009.8
20260506111004 64 201 4.3 12.2 0.00 0.00 0.00 84 1009.8
20260506110504 64 265 1.7 9.6 0.00 0.00 0.00 84 1009.7
20260506110015 64 31 2.6 10.4 0.00 0.00 0.00 84 1009.7
20260506105504 64 205 2.6 12.2 0.00 0.00 0.00 84 1009.6
20260506105003 64 144 3.5 12.2 0.00 0.00 0.00 84 1009.6
20260506104503 64 313 2.6 12.2 0.00 0.00 0.00 84 1009.6
20260506104003 64 243 2.6 12.2 0.00 0.00 0.00 84 1009.7
20260506103503 63 309 3.5 12.2 0.00 0.00 0.00 84 1009.7
20260506103008 63 80 2.6 12.2 0.00 0.00 0.00 84 1009.7
20260506102503 63 261 2.6 9.6 0.00 0.00 0.00 84 1009.7
20260506102004 63 30 1.7 8.7 0.00 0.00 0.00 84 1009.8
20260506101507 63 9 1.7 8.7 0.00 0.00 0.00 84 1009.7
20260506101007 63 247 1.7 8.7 0.00 0.00 0.00 84 1009.7
20260506100504 63 243 1.7 8.7 0.00 0.00 0.00 84 1009.6
20260506100004 63 153 1.7 16.5 0.00 0.00 0.00 84 1009.7
20260506095505 64 248 2.6 16.5 0.00 0.00 0.00 84 1009.7
20260506095002 64 238 2.6 16.5 0.00 0.00 0.00 84 1009.6
20260506094503 64 265 3.5 11.3 0.00 0.00 0.00 84 1009.6
20260506094005 64 172 3.5 10.4 0.00 0.00 0.00 83 1009.6
20260506093505 64 221 2.6 13.0 0.00 0.00 0.00 83 1009.7
20260506093003 64 288 4.3 14.8 0.00 0.00 0.00 83 1009.7
20260506092503 64 232 1.7 14.8 0.00 0.00 0.00 83 1009.8
20260506092004 64 280 2.6 8.7 0.00 0.00 0.00 82 1009.8
20260506091518 65 265 2.6 10.4 0.00 0.00 0.00 82 1009.8
20260506091003 65 254 3.5 12.2 0.00 0.00 0.00 82 1009.7
20260506090502 65 250 2.6 11.3 0.00 0.00 0.00 82 1009.8
20260506090020 65 201 1.7 13.0 0.00 0.00 0.00 82 1009.8
20260506085503 65 254 3.5 13.0 0.00 0.00 0.00 82 1009.8
20260506085003 65 279 2.6 9.6 0.00 0.00 0.00 82 1009.8
20260506084525 65 279 1.7 9.6 0.00 0.00 0.00 82 1009.8
20260506084008 66 162 3.5 9.6 0.00 0.00 0.00 82 1009.8
20260506081004 66 243 3.5 15.6 0.00 0.00 0.00 81 1009.8
20260506080506 66 247 1.7 13.0 0.00 0.00 0.00 82 1009.8
20260506071008 66 250 2.6 13.9 0.00 0.00 0.00 81 1010.1
20260506070508 66 172 4.3 13.0 0.00 0.00 0.00 81 1010.1
20260506061010 66 243 0.9 11.3 0.00 0.00 0.00 79 1010.6
20260506060505 66 247 0.9 11.3 0.00 0.00 0.00 78 1010.6
20260506051004 67 303 1.7 9.6 0.00 0.00 0.00 77 1010.9
20260506050505 67 51 0.9 8.7 0.00 0.00 0.00 77 1011.1
20260506045006 67 292 2.6 7.0 0.00 0.00 0.00 76 1011.0
20260506041005 67 93 0.9 7.8 0.00 0.00 0.00 76 1011.0
20260506040506 67 221 1.7 7.8 0.00 0.00 0.00 75 1011.1
20260506040008 67 249 1.7 7.8 0.00 0.00 0.00 75 1011.1
20260506035502 67 9 0.9 7.8 0.00 0.00 0.00 75 1011.0
20260506035002 67 272 0.9 9.6 0.00 0.00 0.00 75 1011.0
20260506034505 67 93 1.7 9.6 0.00 0.00 0.00 75 1010.8
20260506034007 67 344 1.7 7.8 0.00 0.00 0.00 75 1010.9
20260506033502 67 9 2.6 7.8 0.00 0.00 0.00 75 1010.8
20260506033004 67 178 1.7 9.6 0.00 0.00 0.00 75 1010.8
20260506032504 67 279 0.9 9.6 0.00 0.00 0.00 75 1010.8
20260506032006 67 153 0.9 11.3 0.00 0.00 0.00 75 1010.8
20260506031506 67 196 1.7 11.3 0.00 0.00 0.00 74 1010.8
20260506031003 68 244 1.7 8.7 0.00 0.00 0.00 75 1010.8
20260506030506 68 321 1.7 8.7 0.00 0.00 0.00 75 1010.8
20260506030011 68 205 1.7 11.3 0.00 0.00 0.00 75 1010.8
20260506025509 68 292 0.9 11.3 0.00 0.00 0.00 74 1010.9
20260506025004 68 68 1.7 8.7 0.00 0.00 0.00 74 1010.9
20260506024515 68 265 2.6 8.7 0.00 0.00 0.00 74 1011.0
20260506024002 68 205 0.9 7.0 0.00 0.00 0.00 74 1010.9
20260506023502 68 239 0.9 9.6 0.00 0.00 0.00 74 1011.0
20260506023007 68 321 2.6 9.6 0.00 0.00 0.00 74 1011.0
20260506022508 69 279 2.6 7.8 0.00 0.00 0.00 73 1011.0
20260506022003 69 146 1.7 7.8 0.00 0.00 0.00 73 1011.0
20260506021503 69 221 1.7 10.4 0.00 0.00 0.00 73 1011.0
20260506021004 69 195 1.7 10.4 0.00 0.00 0.00 73 1011.0
20260506020507 69 178 0.9 8.7 0.00 0.00 0.00 73 1011.0
20260506020003 69 178 0.9 8.7 0.00 0.00 0.00 73 1010.9
20260506015503 69 286 0.9 8.7 0.00 0.00 0.00 72 1010.9
20260506015006 69 210 2.6 8.7 0.00 0.00 0.00 72 1010.8
20260506014502 69 330 1.7 6.1 0.00 0.00 0.00 72 1010.7
20260506014004 69 247 0.9 4.3 0.00 0.00 0.00 72 1010.6
20260506013505 70 279 1.7 8.7 0.00 0.00 0.00 72 1010.6
20260506013014 70 239 1.7 8.7 0.00 0.00 0.00 72 1010.6
20260506012503 70 232 0.9 7.0 0.00 0.00 0.00 71 1010.5
20260506012003 70 239 1.7 7.8 0.00 0.00 0.00 71 1010.4
20260506011523 71 328 2.6 7.8 0.00 0.00 0.00 71 1010.4
20260506011010 71 292 1.7 9.6 0.00 0.00 0.00 71 1010.4
20260506010503 71 200 2.6 9.6 0.00 0.00 0.00 70 1010.3
20260506010006 71 221 2.6 7.8 0.00 0.00 0.00 70 1010.2
20260506005504 71 178 2.6 13.0 0.00 0.00 0.00 69 1010.2
20260506005003 72 273 4.3 13.0 0.00 0.00 0.00 69 1010.1
20260506004511 72 360 0.9 7.8 0.00 0.00 0.00 69 1010.1
20260506004003 72 221 1.7 7.8 0.00 0.00 0.00 69 1010.1
20260506003506 72 292 1.7 9.6 0.00 0.00 0.00 68 1010.0
20260506003003 73 292 1.7 9.6 0.00 0.00 0.00 68 1010.0
20260506002504 73 178 2.6 15.6 0.00 0.00 0.00 68 1009.9
20260506002006 73 244 2.6 15.6 0.00 0.00 0.00 67 1010.0
20260506001516 73 205 5.2 15.6 0.00 0.00 0.00 67 1009.9
20260506001004 73 319 4.3 10.4 0.00 0.00 0.00 66 1009.8
20260506000502 73 245 2.6 6.1 0.00 0.00 0.00 66 1009.7
20260506000014 74 232 1.7 7.8 0.00 0.00 0.00 65 1009.7
20260505235502 74 250 0.9 7.8 0.00 0.00 0.00 65 1009.7
20260505235003 74 190 2.6 10.4 0.00 0.00 0.00 64 1009.6
20260505234509 74 51 0.9 10.4 0.00 0.00 0.00 64 1009.5
20260505234012 74 271 1.7 9.6 0.00 0.00 0.00 64 1009.5
20260505233504 75 93 0.9 7.0 0.00 0.00 0.00 64 1009.4
20260505233005 75 265 0.9 7.8 0.00 0.00 0.00 64 1009.4
20260505232505 75 68 2.6 11.3 0.00 0.00 0.00 63 1009.5
20260505232010 75 68 1.7 10.4 0.00 0.00 0.00 63 1009.5